VA5EVR-13 Weather Reports


Display with metric or nautical units.
time (UTC)temp
F
wind
direction
speed
MPH
gust
MPH
rain 1hr
in
rain 24hr
in
rain mn
in
humidity
%
barometer
mb
20260505023012 36 0 16.0 16.0 0.00 0.00 0.00 70 88.8
20260505022012 36 338 17.0 17.0 0.00 0.00 0.00 70 88.8
20260505021012 36 0 18.0 18.0 0.00 0.00 0.00 70 88.8
20260505020011 36 0 17.0 17.0 0.00 0.00 0.00 69 88.8
20260505015012 36 315 14.0 14.0 0.00 0.00 0.00 69 88.8
20260505014011 36 0 16.0 16.0 0.00 0.00 0.00 69 88.8
20260505013012 37 0 19.0 19.0 0.00 0.00 0.00 69 88.8
20260505012012 37 0 20.0 20.0 0.00 0.00 0.00 68 88.8
20260505011012 37 22 19.0 19.0 0.00 0.00 0.00 68 88.8
20260505010011 37 338 16.0 16.0 0.00 0.00 0.00 68 88.8
20260505005011 37 338 19.0 19.0 0.00 0.00 0.00 68 88.8
20260505004011 38 22 11.0 11.0 0.00 0.00 0.00 68 88.8
20260505003011 38 338 19.0 19.0 0.00 0.00 0.00 67 88.8
20260505002012 38 338 14.0 14.0 0.00 0.00 0.00 67 88.8
20260505001012 38 0 21.0 21.0 0.00 0.00 0.00 67 88.8
20260505000012 38 0 21.0 21.0 0.00 0.00 0.00 67 88.8
20260504235012 38 0 17.0 17.0 0.00 0.00 0.00 67 88.8
20260504234012 38 0 19.0 19.0 0.00 0.00 0.00 67 88.8
20260504233012 38 0 21.0 21.0 0.00 0.00 0.00 67 88.8
20260504232012 39 315 15.0 15.0 0.00 0.00 0.00 67 88.8
20260504231012 39 315 12.0 12.0 0.00 0.00 0.00 67 88.8
20260504230011 39 0 20.0 20.0 0.00 0.00 0.00 67 88.8
20260504225011 39 0 16.0 16.0 0.00 0.00 0.00 67 88.8
20260504224012 39 0 17.0 17.0 0.00 0.00 0.00 67 88.8
20260504223012 39 338 16.0 16.0 0.00 0.00 0.00 67 88.8
20260504222012 39 22 19.0 19.0 0.00 0.00 0.00 67 88.8
20260504221012 40 0 15.0 15.0 0.00 0.00 0.00 66 88.8
20260504220012 40 0 18.0 18.0 0.00 0.00 0.00 66 88.8
20260504215011 40 338 18.0 18.0 0.00 0.00 0.00 66 88.8
20260504214011 39 338 17.0 17.0 0.00 0.00 0.00 66 88.8
20260504213012 39 338 21.0 21.0 0.00 0.00 0.00 67 88.8
20260504212011 39 0 14.0 14.0 0.00 0.00 0.00 67 88.8
20260504211012 39 22 20.0 20.0 0.00 0.00 0.00 67 88.8
20260504210012 40 0 18.0 18.0 0.00 0.00 0.00 66 88.8
20260504205011 40 22 27.0 27.0 0.00 0.00 0.00 66 88.8
20260504204012 40 338 16.0 16.0 0.00 0.00 0.00 67 88.8
20260504203011 39 338 17.0 17.0 0.00 0.00 0.00 67 88.8
20260504202011 39 22 18.0 18.0 0.00 0.00 0.00 67 88.8
20260504201012 39 22 12.0 12.0 0.00 0.00 0.00 66 88.8
20260504200011 39 22 16.0 16.0 0.00 0.00 0.00 67 88.8
20260504195012 39 338 12.0 12.0 0.00 0.00 0.00 65 88.8
20260504194012 40 0 18.0 18.0 0.00 0.00 0.00 65 88.8
20260504193012 40 338 22.0 22.0 0.00 0.00 0.00 65 88.8
20260504191012 40 22 18.0 18.0 0.00 0.00 0.00 64 88.8
20260504190011 40 338 13.0 13.0 0.00 0.00 0.00 65 88.8
20260504185012 40 338 15.0 15.0 0.00 0.00 0.00 65 88.8
20260504184012 39 292 24.0 24.0 0.00 0.00 0.00 67 88.8
20260504182012 38 338 16.0 16.0 0.00 0.00 0.00 69 88.8
20260504181011 38 22 18.0 18.0 0.00 0.00 0.00 68 88.8
20260504180011 38 338 12.0 12.0 0.00 0.00 0.00 69 88.8
20260504175012 38 338 22.0 22.0 0.00 0.00 0.00 70 88.8
20260504174012 38 0 14.0 14.0 0.00 0.00 0.00 70 88.8
20260504173012 38 292 9.0 9.0 0.00 0.00 0.00 71 88.8
20260504172013 37 22 18.0 18.0 0.00 0.00 0.00 73 88.8
20260504171012 36 0 16.0 16.0 0.00 0.00 0.00 74 88.8
20260504151012 34 22 22.0 22.0 0.00 0.00 0.00 75 88.8
20260504141011 34 0 21.0 21.0 0.00 0.00 0.00 77 88.8
20260504081011 36 338 10.0 10.0 0.00 0.00 0.00 91 88.8
20260504050012 41 22 10.0 10.0 0.00 0.00 0.00 83 88.8
20260504045011 42 22 9.0 9.0 0.00 0.00 0.00 83 88.8
20260504044012 43 22 17.0 17.0 0.00 0.00 0.00 81 88.8
20260504043011 43 22 20.0 20.0 0.00 0.00 0.00 76 88.8
20260504042012 44 22 24.0 24.0 0.00 0.00 0.00 72 88.8
20260504041012 44 22 18.0 18.0 0.00 0.00 0.00 65 88.8
20260504040011 44 22 19.0 19.0 0.00 0.00 0.00 64 88.8
20260504035011 45 22 13.0 13.0 0.00 0.00 0.00 64 88.8
20260504033012 45 22 15.0 15.0 0.00 0.00 0.00 64 88.8
20260504032012 46 22 9.0 9.0 0.00 0.00 0.00 63 88.8
20260504031012 47 22 11.0 11.0 0.00 0.00 0.00 62 88.8
20260504030012 48 22 10.0 10.0 0.00 0.00 0.00 61 88.8
20260504025011 48 22 16.0 16.0 0.00 0.00 0.00 60 88.8
20260504024012 50 22 11.0 11.0 0.00 0.00 0.00 59 88.8